Change the Weather History Date:

Saturday, December 24, 2011

  Actual Average Record
Temperature  
Mean Temperature 43 °F -  
Max Temperature 44 °F 59 °F 75 °F (2008)
Min Temperature 42 °F 39 °F 28 °F (2007)
Degree Days  
Heating Degree Days 22    
Moisture  
Dew Point 42 °F    
Average Humidity 93    
Maximum Humidity 100    
Minimum Humidity 81    
Precipitation  
Precipitation 0.10 in - - ()
Sea Level Pressure  
Sea Level Pressure 30.32 in    
Wind  
Wind Speed 12 mph (NNE)    
Max Wind Speed 14 mph    
Max Gust Speed 22 mph    
Visibility 10 miles    
Events Rain    
Averages and records for this station are not official NWS values.
T = Trace of Precipitation, MM = Missing Value Source: NWS Daily Summary

Daily Weather History Graph

Daily Weather History Graph

Search for Another Location

Airport or City:

Trip Planner

Search our weather history database for the weather conditions in past years. The results will help you decide how hot, cold, wet, or windy it might be!

Date:

Astronomy

Dec. 24, 2011 Rise Set
Actual Time 7:25 AM CST 5:40 PM CST
Civil Twilight 6:58 AM CST 6:06 PM CST
Nautical Twilight 6:29 AM CST 6:36 PM CST
Astronomical Twilight 5:59 AM CST 7:05 PM CST
Moon 7:14 AM CST (12/24) 5:54 PM CST (12/24)
Length of Visible Light 11h 07m
Length of Day
10h 15m
New Moon, 0% of the Moon is Illuminated
Dec 24
New Moon
Dec 24
New
Jan 1
First Quarter
Jan 9
Full
Jan 16
Last Quarter

Hourly Weather History & Observations

Time (CST) Temp. Windchill Dew Point Humidity Pressure Visibility Wind Dir Wind Speed Gust Speed Precip Events Conditions
12:55 AM 43.7 °F 37.7 °F 38.7 °F 82% 30.32 in 10.0 mi NE 11.5 mph 21.9 mph N/A   Overcast
1:38 AM 44.6 °F 38.4 °F 39.2 °F 81% 30.32 in 10.0 mi NE 12.7 mph - N/A   Light Drizzle
1:55 AM 43.7 °F 36.9 °F 39.2 °F 84% 30.32 in 10.0 mi NE 13.8 mph - 0.00 in   Light Drizzle
2:07 AM 42.8 °F 35.8 °F 39.2 °F 87% 30.32 in 10.0 mi NNE 13.8 mph 19.6 mph N/A   Overcast
2:55 AM 43.7 °F 38.1 °F 39.2 °F 84% 30.32 in 10.0 mi NE 10.4 mph - 0.00 in   Overcast
3:55 AM 43.7 °F 38.6 °F 39.2 °F 84% 30.32 in 10.0 mi NNE 9.2 mph - N/A   Overcast
3:57 AM 44.6 °F 40.7 °F 39.2 °F 81% 30.32 in 10.0 mi NNE 6.9 mph - N/A   Light Drizzle
4:10 AM 42.8 °F 36.6 °F 39.2 °F 87% 30.30 in 10.0 mi NNE 11.5 mph - N/A   Overcast
4:55 AM 43.7 °F 36.9 °F 39.6 °F 85% 30.30 in 10.0 mi NNE 13.8 mph - 0.00 in   Overcast
5:50 AM 42.8 °F 36.2 °F 39.2 °F 87% 30.30 in 10.0 mi NNE 12.7 mph - N/A   Overcast
5:55 AM 43.5 °F 36.7 °F 39.7 °F 87% 30.30 in 10.0 mi NNE 13.8 mph 18.4 mph 0.00 in   Light Drizzle
6:02 AM 42.8 °F 36.6 °F 39.2 °F 87% 30.30 in 10.0 mi NNE 11.5 mph 18.4 mph N/A   Overcast
6:55 AM 43.7 °F 36.9 °F 39.7 °F 86% 30.30 in 10.0 mi NNE 13.8 mph 20.7 mph 0.00 in   Overcast
7:43 AM 44.6 °F 38.8 °F 39.2 °F 81% 30.32 in 10.0 mi NNE 11.5 mph - N/A Rain Light Rain
7:55 AM 43.7 °F 38.1 °F 39.7 °F 86% 30.34 in 10.0 mi NNE 10.4 mph - 0.00 in   Light Drizzle
8:34 AM 42.8 °F 36.2 °F 41.0 °F 93% 30.34 in 10.0 mi NNE 12.7 mph 21.9 mph N/A   Overcast
8:45 AM 42.8 °F 36.6 °F 41.0 °F 93% 30.33 in 10.0 mi NNE 11.5 mph 18.4 mph N/A   Light Drizzle
8:55 AM 43.5 °F 37.5 °F 40.5 °F 89% 30.35 in 10.0 mi NNE 11.5 mph 21.9 mph 0.00 in   Light Drizzle
9:14 AM 42.8 °F 36.2 °F 41.0 °F 93% 30.35 in 8.0 mi NNE 12.7 mph - N/A Rain Light Rain
9:34 AM 42.8 °F 35.8 °F 41.0 °F 93% 30.35 in 8.0 mi NNE 13.8 mph 18.4 mph N/A Rain Light Rain
9:55 AM 43.2 °F 36.6 °F 41.5 °F 94% 30.34 in 8.0 mi NNE 12.7 mph - 0.02 in Rain Light Rain
10:48 AM 42.8 °F 36.2 °F 41.0 °F 93% 30.35 in 9.0 mi NNE 12.7 mph 21.9 mph N/A Rain Light Rain
10:54 AM 42.8 °F 37.0 °F 41.0 °F 93% 30.36 in 8.0 mi NNE 10.4 mph - N/A Rain Light Rain
10:55 AM 43.2 °F 37.0 °F 41.7 °F 95% 30.36 in 8.0 mi NNE 11.5 mph - 0.04 in Rain Light Rain
11:27 AM 42.8 °F 36.2 °F 41.0 °F 93% 30.35 in 7.0 mi NNE 12.7 mph - N/A Rain Light Rain
11:35 AM 42.8 °F 37.0 °F 42.8 °F 100% 30.35 in 6.0 mi NNE 10.4 mph - N/A Rain Light Rain
11:37 AM 42.8 °F 36.6 °F 42.8 °F 100% 30.35 in 7.0 mi NNE 11.5 mph - N/A Rain Light Rain
11:38 AM 42.8 °F 36.6 °F 42.8 °F 100% 30.34 in 7.0 mi NNE 11.5 mph - N/A Rain Light Rain
11:47 AM 42.8 °F 36.6 °F 42.8 °F 100% 30.34 in 6.0 mi NNE 11.5 mph - N/A Rain Light Rain
11:55 AM 43.3 °F 38.1 °F 42.3 °F 96% 30.34 in 6.0 mi NNE 9.2 mph - 0.01 in Rain Light Rain
12:55 PM 43.2 °F 37.0 °F 42.1 °F 96% 30.32 in 8.0 mi NNE 11.5 mph - 0.01 in Rain Light Rain
1:11 PM 42.8 °F 36.6 °F 41.0 °F 93% 30.31 in 10.0 mi NNE 11.5 mph 20.7 mph N/A Rain Light Rain
1:14 PM 42.8 °F 35.8 °F 42.8 °F 100% 30.31 in 10.0 mi NNE 13.8 mph 20.7 mph N/A Rain Light Rain
1:31 PM 42.8 °F 36.2 °F 42.8 °F 100% 30.30 in 10.0 mi NNE 12.7 mph - N/A   Overcast
1:44 PM 42.8 °F 36.6 °F 42.8 °F 100% 30.30 in 10.0 mi NNE 11.5 mph 20.7 mph N/A   Light Drizzle
1:55 PM 43.3 °F 36.8 °F 41.9 °F 95% 30.30 in 10.0 mi NNE 12.7 mph 20.7 mph 0.00 in   Light Drizzle
2:05 PM 42.8 °F 37.0 °F 41.0 °F 93% 30.30 in 10.0 mi NNE 10.4 mph - N/A   Overcast
2:19 PM 42.8 °F 36.6 °F 41.0 °F 93% 30.30 in 9.0 mi North 11.5 mph - N/A Rain Light Rain
2:21 PM 42.8 °F 37.0 °F 41.0 °F 93% 30.30 in 9.0 mi NNE 10.4 mph - N/A Rain Light Rain
2:55 PM 43.3 °F 36.5 °F 42.1 °F 95% 30.29 in 9.0 mi NNE 13.8 mph - 0.00 in Rain Light Rain
3:01 PM 42.8 °F 38.0 °F 42.8 °F 100% 30.29 in 8.0 mi NNE 8.1 mph - N/A Rain Light Rain
3:22 PM 42.8 °F 36.6 °F 42.8 °F 100% 30.29 in 7.0 mi NNE 11.5 mph - N/A Rain Light Rain
3:51 PM 42.8 °F 36.2 °F 42.8 °F 100% 30.28 in 10.0 mi NNE 12.7 mph - N/A   Overcast
3:52 PM 42.8 °F 35.8 °F 42.8 °F 100% 30.28 in 10.0 mi North 13.8 mph - N/A   Overcast
3:55 PM 43.5 °F 37.9 °F 42.3 °F 95% 30.28 in 10.0 mi NNE 10.4 mph - 0.01 in   Overcast
3:56 PM 42.8 °F 37.0 °F 42.8 °F 100% 30.28 in 10.0 mi North 10.4 mph - N/A Rain Light Rain
4:16 PM 44.6 °F 38.4 °F 42.8 °F 93% 30.29 in 10.0 mi North 12.7 mph - N/A   Overcast
4:40 PM 44.6 °F 39.2 °F 42.8 °F 93% 30.29 in 10.0 mi NNE 10.4 mph - N/A   Light Drizzle
4:54 PM 44.6 °F 39.7 °F 42.8 °F 93% 30.29 in 10.0 mi North 9.2 mph - N/A   Overcast
4:55 PM 43.9 °F 38.3 °F 42.3 °F 94% 30.29 in 10.0 mi NNE 10.4 mph - 0.00 in   Overcast
5:06 PM 44.6 °F 39.7 °F 42.8 °F 93% 30.29 in 10.0 mi North 9.2 mph - N/A   Light Drizzle
5:45 PM 42.8 °F 38.0 °F 42.8 °F 100% 30.30 in 10.0 mi North 8.1 mph 18.4 mph N/A   Light Drizzle
5:54 PM 42.8 °F 38.0 °F 42.8 °F 100% 30.31 in 10.0 mi North 8.1 mph - N/A Rain Light Rain
5:55 PM 43.7 °F 39.1 °F 42.6 °F 96% 30.31 in 10.0 mi North 8.1 mph - 0.00 in Rain Light Rain
5:57 PM 44.6 °F 39.2 °F 42.8 °F 93% 30.30 in 10.0 mi North 10.4 mph - N/A Rain Light Rain
5:59 PM 44.6 °F 38.4 °F 42.8 °F 93% 30.30 in 10.0 mi North 12.7 mph - N/A Rain Light Rain
6:04 PM 44.6 °F 39.7 °F 42.8 °F 93% 30.31 in 10.0 mi North 9.2 mph - N/A Rain Light Rain
6:08 PM 44.6 °F 39.7 °F 42.8 °F 93% 30.31 in 10.0 mi North 9.2 mph - N/A Rain Light Rain
6:13 PM 44.6 °F 38.8 °F 42.8 °F 93% 30.31 in 10.0 mi North 11.5 mph - N/A Rain Light Rain
6:14 PM 44.6 °F 38.8 °F 42.8 °F 93% 30.31 in 10.0 mi North 11.5 mph - N/A Rain Light Rain
6:17 PM 44.6 °F 39.2 °F 42.8 °F 93% 30.31 in 10.0 mi North 10.4 mph - N/A   Light Drizzle
6:22 PM 44.6 °F 39.7 °F 42.8 °F 93% 30.31 in 10.0 mi North 9.2 mph - N/A Rain Light Rain
6:30 PM 44.6 °F 39.7 °F 42.8 °F 93% 30.31 in 10.0 mi North 9.2 mph - N/A Rain Light Rain
6:45 PM 44.6 °F 39.2 °F 42.8 °F 93% 30.32 in 10.0 mi North 10.4 mph 16.1 mph N/A   Overcast
6:50 PM 44.6 °F 39.2 °F 42.8 °F 93% 30.32 in 10.0 mi North 10.4 mph - N/A   Light Drizzle
6:55 PM 43.7 °F 38.6 °F 42.6 °F 96% 30.32 in 10.0 mi North 9.2 mph - 0.01 in   Light Drizzle
7:30 PM 42.8 °F 36.6 °F 42.8 °F 100% 30.33 in 10.0 mi North 11.5 mph - N/A Rain Light Rain
7:45 PM 42.8 °F 35.8 °F 42.8 °F 100% 30.33 in 10.0 mi North 13.8 mph - N/A   Overcast
7:55 PM 43.5 °F 37.5 °F 42.3 °F 95% 30.34 in 10.0 mi North 11.5 mph - 0.00 in   Overcast
8:03 PM 42.8 °F 36.2 °F 42.8 °F 100% 30.33 in 10.0 mi North 12.7 mph - N/A   Overcast
8:48 PM 44.6 °F 38.4 °F 41.0 °F 87% 30.35 in 10.0 mi North 12.7 mph - N/A   Overcast
8:55 PM 43.7 °F 37.3 °F 41.9 °F 93% 30.35 in 10.0 mi North 12.7 mph - N/A   Overcast
9:43 PM 44.6 °F 38.4 °F 41.0 °F 87% 30.36 in 10.0 mi North 12.7 mph - N/A   Overcast
9:55 PM 43.9 °F 37.9 °F 41.2 °F 90% 30.36 in 10.0 mi NNW 11.5 mph - N/A   Overcast
10:46 PM 44.6 °F 39.2 °F 41.0 °F 87% 30.37 in 10.0 mi North 10.4 mph - N/A   Overcast
10:55 PM 43.9 °F 38.3 °F 41.2 °F 90% 30.37 in 10.0 mi North 10.4 mph - 0.00 in   Light Drizzle
11:10 PM 44.6 °F 39.2 °F 41.0 °F 87% 30.37 in 10.0 mi North 10.4 mph - N/A   Overcast
11:55 PM 43.5 °F 37.5 °F 41.7 °F 93% 30.36 in 10.0 mi NNW 11.5 mph - 0.00 in   Overcast